| time (UTC) | temp F | wind direction | speed knots | gust knots | rain 1hr in | rain 24hr in | rain mn in | humidity % | barometer mb |
| 20260510190046 | 91 | 127 | 4.3 | 12.2 | 0.00 | 0.01 | 0.00 | 67 | 1010.9 |
| 20260510184606 | 91 | 140 | 6.1 | 9.6 | 0.00 | 0.01 | 0.00 | 67 | 1011.0 |
| 20260510183041 | 91 | 115 | 3.5 | 7.8 | 0.00 | 0.01 | 0.00 | 69 | 1011.1 |
| 20260510181554 | 90 | 157 | 3.5 | 11.3 | 0.00 | 0.01 | 0.00 | 69 | 1011.2 |
| 20260510180051 | 89 | 121 | 2.6 | 7.8 | 0.00 | 0.01 | 0.00 | 73 | 1011.3 |
| 20260510174536 | 88 | 89 | 1.7 | 7.8 | 0.00 | 0.02 | 0.00 | 75 | 1011.7 |
| 20260510173040 | 86 | 137 | 6.1 | 12.2 | 0.00 | 0.02 | 0.00 | 76 | 1011.7 |
| 20260510171557 | 86 | 116 | 2.6 | 9.6 | 0.00 | 0.02 | 0.00 | 79 | 1011.9 |
| 20260510170041 | 85 | 123 | 6.1 | 9.6 | 0.00 | 0.02 | 0.00 | 78 | 1011.9 |
| 20260510164538 | 85 | 126 | 2.6 | 7.8 | 0.00 | 0.04 | 0.00 | 79 | 1011.5 |
| 20260510163035 | 84 | 146 | 6.1 | 11.3 | 0.00 | 0.04 | 0.00 | 79 | 1011.5 |
| 20260510161541 | 85 | 125 | 3.5 | 11.3 | 0.00 | 0.04 | 0.00 | 78 | 1011.5 |
| 20260510160047 | 85 | 29 | 1.7 | 7.0 | 0.00 | 0.04 | 0.00 | 79 | 1011.3 |
| 20260510154558 | 84 | 78 | 1.7 | 7.0 | 0.00 | 0.06 | 0.00 | 82 | 1011.4 |
| 20260510153047 | 83 | 90 | 1.7 | 6.1 | 0.00 | 0.06 | 0.00 | 84 | 1011.6 |
| 20260510151543 | 81 | 90 | 3.5 | 8.7 | 0.00 | 0.06 | 0.00 | 86 | 1011.4 |
| 20260510150051 | 80 | 105 | 2.6 | 6.1 | 0.00 | 0.06 | 0.00 | 88 | 1011.4 |
| 20260510144557 | 79 | 107 | 2.6 | 7.0 | 0.00 | 0.08 | 0.00 | 90 | 1011.5 |
| 20260510143039 | 79 | 108 | 0.9 | 3.5 | 0.00 | 0.08 | 0.00 | 91 | 1011.5 |
| 20260510141541 | 77 | 96 | 2.6 | 6.1 | 0.00 | 0.08 | 0.00 | 92 | 1011.5 |
| 20260510140035 | 77 | 0 | 2.6 | 6.1 | 0.00 | 0.08 | 0.00 | 93 | 1011.3 |
| 20260510134548 | 76 | 76 | 1.7 | 7.8 | 0.00 | 0.09 | 0.00 | 93 | 1011.3 |
| 20260510133041 | 76 | 52 | 2.6 | 7.0 | 0.00 | 0.09 | 0.00 | 93 | 1011.2 |
| 20260510131541 | 76 | 65 | 0.9 | 6.1 | 0.00 | 0.09 | 0.00 | 93 | 1011.1 |
| 20260510130039 | 75 | 40 | 0.9 | 6.1 | 0.00 | 0.09 | 0.00 | 93 | 1011.0 |
| 20260510124546 | 75 | 59 | 1.7 | 4.3 | 0.00 | 0.10 | 0.00 | 92 | 1010.7 |
| 20260510123041 | 75 | 87 | 1.7 | 5.2 | 0.00 | 0.10 | 0.00 | 92 | 1010.8 |
| 20260510121541 | 75 | 0 | 0.9 | 3.5 | 0.00 | 0.10 | 0.00 | 92 | 1010.7 |
| 20260510120038 | 75 | 0 | 0.0 | 3.5 | 0.00 | 0.10 | 0.00 | 92 | 1010.3 |
| 20260510114533 | 75 | 74 | 0.9 | 4.3 | 0.00 | 0.12 | 0.00 | 92 | 1010.0 |
| 20260510113043 | 75 | 67 | 1.7 | 4.3 | 0.00 | 0.12 | 0.00 | 92 | 1009.8 |
| 20260510111546 | 75 | 66 | 2.6 | 4.3 | 0.00 | 0.12 | 0.00 | 91 | 1009.9 |
| 20260510110042 | 76 | 74 | 0.9 | 2.6 | 0.00 | 0.12 | 0.00 | 91 | 1009.8 |
| 20260510104552 | 76 | 0 | 0.0 | 3.5 | 0.00 | 0.12 | 0.00 | 91 | 1009.8 |
| 20260510103039 | 76 | 144 | 0.0 | 2.6 | 0.00 | 0.12 | 0.00 | 91 | 1009.8 |
| 20260510101539 | 76 | 176 | 0.0 | 1.7 | 0.00 | 0.12 | 0.00 | 91 | 1009.7 |
| 20260510100050 | 76 | 176 | 0.9 | 3.5 | 0.00 | 0.12 | 0.00 | 91 | 1009.6 |
| 20260510094539 | 76 | 150 | 2.6 | 6.1 | 0.00 | 0.12 | 0.00 | 91 | 1009.8 |
| 20260510093046 | 76 | 147 | 1.7 | 3.5 | 0.00 | 0.12 | 0.00 | 91 | 1009.8 |
| 20260510091539 | 76 | 134 | 2.6 | 5.2 | 0.00 | 0.12 | 0.00 | 91 | 1009.6 |
| 20260510090044 | 76 | 127 | 2.6 | 6.1 | 0.00 | 0.12 | 0.00 | 91 | 1009.7 |
| 20260510084557 | 76 | 127 | 1.7 | 6.1 | 0.00 | 0.12 | 0.00 | 91 | 1009.8 |
| 20260510083056 | 75 | 118 | 0.9 | 3.5 | 0.00 | 0.12 | 0.00 | 91 | 1009.9 |
| 20260510081547 | 76 | 117 | 0.9 | 3.5 | 0.00 | 0.12 | 0.00 | 91 | 1010.3 |
| 20260510080037 | 76 | 140 | 2.6 | 6.1 | 0.00 | 0.12 | 0.00 | 91 | 1010.6 |
| 20260510074553 | 76 | 121 | 2.6 | 6.1 | 0.00 | 0.12 | 0.00 | 91 | 1010.9 |
| 20260510073049 | 75 | 90 | 0.0 | 2.6 | 0.00 | 0.12 | 0.00 | 90 | 1010.8 |
| 20260510071540 | 76 | 134 | 0.9 | 3.5 | 0.00 | 0.12 | 0.00 | 90 | 1010.8 |
| 20260510070042 | 76 | 0 | 0.9 | 3.5 | 0.00 | 0.12 | 0.00 | 90 | 1010.6 |
| 20260510064536 | 76 | 133 | 3.5 | 7.8 | 0.00 | 0.12 | 0.00 | 90 | 1010.3 |
| 20260510063040 | 76 | 136 | 2.6 | 7.8 | 0.00 | 0.12 | 0.00 | 89 | 1010.4 |
| 20260510061554 | 76 | 131 | 3.5 | 7.8 | 0.00 | 0.12 | 0.00 | 89 | 1010.6 |
| 20260510060044 | 77 | 126 | 2.6 | 7.8 | 0.00 | 0.12 | 0.00 | 88 | 1010.7 |
| 20260510054540 | 77 | 138 | 2.6 | 7.0 | 0.00 | 0.12 | 0.00 | 88 | 1010.8 |
| 20260510053041 | 77 | 126 | 3.5 | 8.7 | 0.00 | 0.12 | 0.00 | 88 | 1010.8 |
| 20260510051544 | 77 | 111 | 1.7 | 7.8 | 0.00 | 0.12 | 0.00 | 87 | 1010.9 |
| 20260510050045 | 77 | 123 | 1.7 | 7.8 | 0.00 | 0.12 | 0.00 | 87 | 1010.8 |
| 20260510044542 | 77 | 123 | 0.9 | 3.5 | 0.00 | 0.12 | 0.12 | 86 | 1010.8 |
| 20260510043048 | 77 | 0 | 0.0 | 1.7 | 0.00 | 0.12 | 0.12 | 85 | 1010.8 |
| 20260510041544 | 78 | 0 | 0.0 | 2.6 | 0.00 | 0.12 | 0.12 | 85 | 1010.9 |
| 20260510034547 | 78 | 99 | 0.9 | 2.6 | 0.00 | 0.12 | 0.12 | 83 | 1010.6 |
| 20260510033041 | 79 | 94 | 1.7 | 5.2 | 0.00 | 0.12 | 0.12 | 82 | 1010.4 |
| 20260510031555 | 79 | 93 | 1.7 | 5.2 | 0.00 | 0.12 | 0.12 | 81 | 1010.2 |
| 20260510030044 | 79 | 92 | 1.7 | 6.1 | 0.00 | 0.12 | 0.12 | 80 | 1010.0 |
| 20260510024536 | 80 | 71 | 1.7 | 6.1 | 0.00 | 0.12 | 0.12 | 78 | 1009.7 |
| 20260510023044 | 80 | 96 | 1.7 | 7.0 | 0.00 | 0.12 | 0.12 | 77 | 1009.4 |
| 20260510021540 | 81 | 96 | 1.7 | 6.1 | 0.00 | 0.12 | 0.12 | 76 | 1009.2 |
| 20260510020038 | 81 | 94 | 1.7 | 5.2 | 0.00 | 0.12 | 0.12 | 76 | 1009.1 |
| 20260510014537 | 81 | 86 | 2.6 | 7.0 | 0.00 | 0.12 | 0.12 | 75 | 1008.9 |
| 20260510013038 | 81 | 90 | 1.7 | 7.0 | 0.00 | 0.12 | 0.12 | 75 | 1008.7 |
| 20260510011541 | 82 | 89 | 1.7 | 8.7 | 0.00 | 0.12 | 0.12 | 74 | 1008.6 |
| 20260510010041 | 82 | 102 | 4.3 | 8.7 | 0.00 | 0.12 | 0.12 | 73 | 1008.4 |
| 20260510004539 | 83 | 65 | 4.3 | 9.6 | 0.00 | 0.12 | 0.12 | 73 | 1008.2 |
| 20260510003040 | 83 | 113 | 2.6 | 7.8 | 0.00 | 0.12 | 0.12 | 72 | 1008.0 |
| 20260510001535 | 84 | 61 | 2.6 | 7.8 | 0.00 | 0.12 | 0.12 | 71 | 1007.9 |
| 20260510000043 | 84 | 101 | 2.6 | 7.8 | 0.00 | 0.12 | 0.12 | 71 | 1007.8 |
| 20260509234540 | 84 | 103 | 2.6 | 7.0 | 0.00 | 0.12 | 0.12 | 71 | 1007.8 |
| 20260509233040 | 85 | 96 | 4.3 | 8.7 | 0.00 | 0.12 | 0.12 | 71 | 1007.8 |
| 20260509231543 | 85 | 111 | 2.6 | 9.6 | 0.00 | 0.12 | 0.12 | 71 | 1007.6 |
| 20260509230037 | 87 | 51 | 7.0 | 13.0 | 0.00 | 0.12 | 0.12 | 68 | 1007.5 |
| 20260509224539 | 88 | 42 | 2.6 | 11.3 | 0.00 | 0.12 | 0.12 | 68 | 1007.5 |
| 20260509223042 | 89 | 67 | 2.6 | 11.3 | 0.00 | 0.12 | 0.12 | 66 | 1007.5 |
| 20260509221538 | 89 | 63 | 5.2 | 11.3 | 0.00 | 0.12 | 0.12 | 66 | 1007.6 |
| 20260509220039 | 90 | 64 | 5.2 | 10.4 | 0.00 | 0.12 | 0.12 | 65 | 1007.6 |
| 20260509214540 | 90 | 30 | 3.5 | 7.8 | 0.00 | 0.12 | 0.12 | 64 | 1007.6 |
| 20260509213039 | 91 | 51 | 3.5 | 7.8 | 0.00 | 0.12 | 0.12 | 65 | 1007.6 |
| 20260509211537 | 90 | 12 | 2.6 | 8.7 | 0.00 | 0.12 | 0.12 | 65 | 1007.7 |
| 20260509210042 | 92 | 29 | 2.6 | 7.0 | 0.00 | 0.12 | 0.12 | 64 | 1007.9 |
| 20260509204546 | 91 | 74 | 0.9 | 4.3 | 0.00 | 0.12 | 0.12 | 64 | 1007.8 |
| 20260509203040 | 91 | 20 | 0.9 | 5.2 | 0.01 | 0.12 | 0.12 | 65 | 1007.8 |
| 20260509201540 | 89 | 205 | 0.0 | 3.5 | 0.01 | 0.12 | 0.12 | 66 | 1008.1 |
| 20260509200043 | 88 | 260 | 2.6 | 6.1 | 0.01 | 0.12 | 0.12 | 67 | 1008.3 |
| 20260509194540 | 88 | 289 | 1.7 | 4.3 | 0.01 | 0.12 | 0.12 | 69 | 1008.4 |
| 20260509193041 | 88 | 232 | 1.7 | 6.1 | 0.00 | 0.11 | 0.11 | 68 | 1008.8 |
| 20260509191542 | 88 | 257 | 0.9 | 6.1 | 0.00 | 0.11 | 0.11 | 68 | 1009.0 |